sat.trackr.live / text

‹ back to catalog

ONEWEB-0213

NORAD 48790 · 2021-045Z

PAYLOAD ACTIVE UNKNOWN

§ Identity

Operator
Country
UK
Launch date
2021-05-28
Launch site
VOSTO
Launch vehicle
Mass (kg)
RCS (m²)

Purposes: comms

External: N2YO · Heavens-Above · Gunter

§ Orbital elements

Epoch: 2026-09-19T22:10:55.600032Z

Period
109.46 min
Inclination
87.8995°
Eccentricity
0.0002086
Mean motion
13.15548486 rev/d
Perigee alt
1,200.2 km
Apogee alt
1,203.4 km
Semi-major
7,579.9 km
B*
3.9936e-4
RAAN
240.3096°
Arg perigee
75.1459°
Mean anomaly
284.9903°
Rev number
25,689

§ Raw data

ONEWEB-02131 48790U 21045Z   26262.92425463  .00000163  00000+0  39936-3 0  99952 48790  87.8995 240.3096 0002086  75.1459 284.9903 13.15548486256897

JSON: /api/v1/satellites/48790 · /tle

For live sub-satellite position, see the globe view (requires WebGL).

§ Visibility from observer

Set your observer location to see the next 7 days of passes ≥ 10°. The values pass through the URL so the page stays shareable.

No JS? Fill the form by hand. The geolocation button needs JavaScript.